This demonstration page uses our WeatherBlox Daily Observations layout. Learn more.

Left ArrowRight Arrow

36.17497, -115.13722

Hourly Observations for April 4, 2020

Temp ( °F °C ) Dew Point ( °F °C ) Humidity (%) Winds ( mph kmh ) Pressure ( in mb ) Visibility ( mi km ) Precip ( " mm )
12:53 am 00:53 Clear 56 13.3 26 -3.3 32 32 WNW 5 7 29.80 1009 10 16 N/A
1:53 am 01:53 Clear 56 13.3 26 -3.3 32 32 N N/A 29.78 1009 10 16 N/A
2:53 am 02:53 Clear 53 11.7 27 -2.8 37 37 N 6 9 29.78 1008 10 16 N/A
3:53 am 03:53 Clear 53 11.7 27 -2.8 37 37 NW 6 9 29.78 1008 10 16 N/A
4:53 am 04:53 Clear 52 11.1 26 -3.3 37 37 NNW 5 7 29.79 1009 10 16 N/A
5:53 am 05:53 Clear 52 11.1 27 -2.8 38 38 W 3 6 29.79 1009 10 16 N/A
6:53 am 06:53 Sunny 51 10.6 27 -2.8 39 39 WNW 5 7 29.80 1009 10 16 N/A
7:53 am 07:53 Sunny 54 12.2 26 -3.3 34 34 NNW 5 7 29.82 1010 10 16 N/A
8:53 am 08:53 Sunny 57 13.9 26 -3.3 30 30 N N/A 29.82 1010 10 16 N/A
9:53 am 09:53 Sunny 62 16.7 25 -3.9 24 24 SE 6 9 29.83 1010 10 16 N/A
10:53 am 10:53 Sunny 66 18.9 23 -5 19 19 E 5 7 29.82 1010 10 16 N/A
11:53 am 11:53 Sunny 68 20 23 -5 18 18 undefined N/A 29.80 1009 10 16 N/A
12:53 pm 12:53 Sunny 71 21.7 23 -5 16 16 SE 7 11 29.78 1008 10 16 N/A
1:53 pm 13:53 Sunny 73 22.8 24 -4.4 16 16 ESE 13 20 29.74 1007 10 16 N/A
2:53 pm 14:53 Sunny 75 23.9 24 -4.4 15 15 S 15 24 29.70 1006 10 16 N/A
3:53 pm 15:53 Sunny 77 25 21 -6.1 12 12 SSW 14 22 29.67 1005 10 16 N/A
4:53 pm 16:53 Sunny 76 24.4 22 -5.6 13 13 SSW 17 28 29.66 1004 10 16 N/A
5:53 pm 17:53 Sunny 74 23.3 24 -4.4 15 15 SSW 13 20 29.65 1004 10 16 N/A
6:53 pm 18:53 Sunny 72 22.2 26 -3.3 18 18 S 17 28 29.66 1004 10 16 N/A
7:53 pm 19:53 Clear 71 21.7 29 -1.7 21 21 S 10 17 29.66 1005 10 16 N/A
8:53 pm 20:53 Clear 70 21.1 29 -1.7 22 22 S 8 13 29.68 1005 10 16 N/A
9:53 pm 21:53 Clear 69 20.6 29 -1.7 22 22 SSW 12 19 29.68 1005 10 16 N/A
10:53 pm 22:53 Clear 67 19.4 30 -1.1 25 25 S 8 13 29.69 1005 10 16 N/A
11:53 pm 23:53 Clear 67 19.4 31 -0.6 26 26 SSW 8 13 29.70 1006 10 16 N/A

Powered by AerisWeather